MST,Max TemperatureF,Mean TemperatureF,Min TemperatureF,Max Dew PointF,MeanDew PointF,Min DewpointF,Max Humidity, Mean Humidity, Min Humidity, Max Sea Level PressureIn, Mean Sea Level PressureIn, Min Sea Level PressureIn, Max VisibilityMiles, Mean VisibilityMiles, Min VisibilityMiles, Max Wind SpeedMPH, Mean Wind SpeedMPH, Max Gust SpeedMPH,PrecipitationIn, CloudCover, Events, WindDirDegrees
2010-11-1,55,46,37,28,20,16,49,37,25,30.47,30.38,30.34,10,10,10,26,11,32,0.00,1,,1
2010-11-2,64,50,37,21,20,19,48,28,19,30.56,30.46,30.39,10,10,10,14,5,20,0.00,0,,41
2010-11-3,64,48,33,32,28,18,56,35,26,30.56,30.50,30.47,10,10,10,9,6,,0.00,0,,352
2010-11-4,60,43,26,34,26,18,80,55,31,30.54,30.47,30.34,10,10,10,9,3,,0.00,0,,252
2010-11-5,64,48,32,32,28,21,64,33,22,30.38,30.29,30.24,10,10,10,12,4,,0.00,0,,285
2010-11-6,66,48,30,30,26,19,70,41,21,30.37,30.31,30.26,10,10,10,10,4,,0.00,0,,315
2010-11-7,64,45,26,27,20,14,69,42,16,30.32,30.25,30.18,10,10,10,21,6,28,0.00,0,,301
2010-11-8,62,42,23,25,16,7,64,37,18,30.17,30.04,29.88,10,10,10,15,6,17,655.34,0,,290
2010-11-9,48,38,28,30,17,10,75,43,22,29.91,29.84,29.80,10,10,10,24,9,32,0.00,3,,266
2010-11-10,46,28,10,16,9,1,79,45,20,30.01,29.96,29.90,10,10,10,12,6,,0.00,0,,219
2010-11-11,46,29,12,16,9,0,58,41,25,30.18,30.07,29.97,10,10,10,13,6,17,0.00,2,,305
2010-11-12,44,29,14,18,12,3,80,50,23,30.35,30.28,30.23,10,10,10,13,6,,0.00,0,,22
2010-11-13,46,28,10,16,8,0,67,45,27,30.32,30.20,30.06,10,10,10,18,6,26,0.00,0,,289
2010-11-14,46,28,10,16,9,1,73,47,25,30.07,29.98,29.86,10,10,10,14,5,,0.00,1,,296
2010-11-15,44,32,19,28,18,9,93,61,34,29.97,29.84,29.79,10,9,2,20,3,26,0.00,4,,276
2010-11-16,50,34,21,28,22,18,93,76,37,30.04,29.96,29.76,10,7,0,24,4,31,0.00,6,,241
2010-11-17,,,,,,,,,,,,,,,,,,,,,,
2010-11-18,55,39,23,10,4,-6,39,23,12,30.40,30.28,30.22,10,10,10,15,5,16,0.00,0,,258
2010-11-19,57,34,12,12,5,-4,53,33,14,30.22,30.15,30.05,10,10,10,14,4,16,0.00,0,,244
2010-11-20,57,38,19,18,10,0,59,34,16,30.08,30.03,29.92,10,10,10,16,5,23,0.00,0,,231
2010-11-21,51,40,30,18,13,3,38,31,25,29.94,29.88,29.77,10,10,10,26,9,34,0.00,4,,236
2010-11-22,35,30,21,28,19,12,81,63,44,30.10,29.94,29.80,10,10,3,26,14,36,0.00,7,,249
2010-11-23,44,25,6,18,8,-2,92,55,23,30.12,30.03,29.87,10,10,10,16,5,24,0.00,0,,216
2010-11-24,39,34,30,16,10,3,55,36,26,29.78,29.74,29.70,10,10,10,33,16,40,0.00,5,,255
2010-11-25,30,21,12,16,-2,-15,69,36,18,30.05,29.93,29.82,10,10,10,22,11,28,0.00,3,,324
2010-11-26,46,24,1,7,-3,-15,66,36,20,30.32,30.24,30.21,10,10,9,8,3,,0.00,0,,12
2010-11-27,51,30,8,12,5,-4,73,40,18,30.22,30.07,29.89,10,10,10,21,5,16,0.00,0,,305
2010-11-28,42,26,10,19,6,-11,69,44,26,29.80,29.65,29.53,10,10,1,34,8,44,0.00,3,,291
2010-11-29,33,25,17,18,14,10,86,64,38,30.08,29.81,29.63,10,10,2,18,10,22,0.00,7,,239
2010-11-30,33,16,0,7,1,-11,100,57,28,30.33,30.26,30.18,10,10,10,10,3,,0.00,0,,292